ECMWFFLT1_700_spd_009.txt.gz
Wind_Speed
1 1 0 0 1 2 3 4 4 5 5 6 5 5 4 4 4 4 5 5 6 7 8 10 13 15 16 18 19 20 21 21 21 20 20 20 20 20 19 19 19 17 17 17 16 16 16 17 16 17 18 17 17 18 18 18 18 18 19 19 19 20 20
3 2 2 2 3 4 6 7 7 7 7 8 8 7 6 5 5 5 5 5 5 6 7 8 9 10 11 12 13 15 16 17 18 18 19 19 19 20 20 20 20 20 20 20 20 20 21 21 20 21 21 20 20 21 21 21 20 20 21 21 22 22 22
5 4 3 3 4 7 8 9 9 8 8 8 8 9 8 8 7 7 7 6 6 6 6 7 8 9 9 9 9 10 11 12 13 13 14 15 15 16 17 18 18 19 20 20 21 23 24 25 26 25 24 24 23 23 23 23 22 22 22 23 23 23 23
6 5 4 3 5 7 8 9 9 9 9 8 8 8 8 9 8 8 8 8 8 7 7 7 8 8 8 8 8 8 8 9 10 10 11 11 12 12 13 14 15 16 17 18 19 20 22 23 25 26 26 26 25 24 25 24 24 24 24 24 25 25 25
6 6 4 4 5 7 8 9 10 10 10 9 8 7 7 8 8 8 9 9 9 9 9 9 9 9 9 9 8 8 8 9 10 10 10 10 10 10 10 11 12 12 13 15 16 17 18 20 22 23 24 25 25 25 26 27 27 27 27 27 27 28 28
5 5 5 4 4 6 8 9 10 10 10 10 9 8 7 7 7 8 8 8 9 10 10 10 11 11 11 11 10 10 10 10 10 11 11 11 11 11 11 11 11 12 12 13 13 14 15 16 18 20 21 22 23 24 25 26 27 28 29 30 31 31 31
4 4 4 4 4 6 8 9 10 10 11 10 10 10 9 8 7 7 7 7 8 9 10 11 11 12 12 13 13 13 12 12 12 12 12 12 12 12 13 13 13 13 13 14 14 14 15 15 16 17 18 19 19 21 22 22 23 24 26 28 30 32 33
4 4 3 3 4 5 6 8 9 10 11 10 10 10 10 10 9 8 7 7 7 8 9 10 11 11 12 13 14 14 14 14 14 14 14 15 14 14 15 15 15 15 16 16 16 16 17 17 17 18 18 18 18 19 19 19 19 20 21 23 25 28 31
5 5 4 3 3 3 5 6 7 9 10 10 10 10 10 11 11 10 10 9 8 8 8 9 10 11 11 12 13 14 15 15 15 15 16 16 16 16 16 17 17 17 17 18 18 18 19 19 19 19 20 20 20 20 19 19 18 17 18 19 19 22 26
7 6 6 7 7 6 6 6 7 7 8 8 9 10 10 11 12 12 12 11 10 10 9 10 10 11 11 12 13 14 14 15 15 15 15 15 15 16 16 16 17 17 17 18 18 18 19 20 20 21 21 21 22 21 21 20 18 18 18 18 19 21 22
9 8 8 10 10 10 9 9 9 9 8 8 8 10 10 11 12 13 13 13 13 12 12 11 11 11 12 12 13 14 14 15 15 15 16 15 15 14 14 14 15 15 16 16 17 17 17 18 19 19 20 20 21 21 22 21 18 17 19 19 20 22 23
12 11 11 12 12 12 12 11 12 12 11 10 10 10 11 11 11 12 12 13 13 13 13 13 13 12 12 12 12 13 14 14 15 15 16 15 15 15 15 14 14 14 14 15 15 16 16 17 18 19 19 20 20 21 21 21 18 15 18 19 20 23 24
15 15 14 14 14 14 14 14 14 15 15 14 13 12 13 13 13 12 12 12 13 13 14 14 14 14 13 13 12 12 13 13 14 15 16 15 15 15 15 14 14 14 14 14 15 16 16 17 18 19 20 20 21 22 21 22 19 15 17 20 20 22 24
16 17 17 16 16 16 16 16 16 18 18 18 17 16 16 16 15 15 14 14 14 15 15 15 15 15 15 15 14 13 13 13 14 15 16 16 16 16 15 15 15 15 16 16 16 17 17 18 19 20 21 22 23 23 23 23 21 17 17 21 21 22 24
18 19 19 19 18 18 19 19 19 20 21 21 21 20 20 19 19 18 17 17 17 17 17 16 16 16 16 16 15 15 14 14 14 15 15 16 16 17 17 17 18 18 19 19 19 20 20 21 22 23 24 24 25 25 25 25 24 21 18 20 22 22 24
20 20 21 21 21 21 21 21 22 23 24 24 24 24 24 23 22 21 21 20 20 20 20 19 18 18 18 17 17 17 16 16 16 16 16 16 17 18 18 19 20 21 21 22 23 24 25 25 26 26 26 26 26 27 27 27 27 26 22 21 23 23 24
22 22 22 22 23 23 23 24 25 26 27 28 28 27 27 27 27 25 24 23 23 23 23 23 22 21 20 20 19 19 18 18 19 19 18 19 19 20 20 21 21 22 23 24 24 25 27 28 28 29 28 28 28 29 29 30 30 29 28 25 25 26 26
26 24 23 23 24 24 25 27 28 29 30 31 31 31 30 30 30 30 28 27 27 27 27 26 26 25 25 24 23 22 21 20 20 20 21 21 22 22 23 23 24 24 25 25 26 27 28 28 29 30 30 30 31 31 32 32 32 32 31 29 28 28 29
28 27 26 25 25 26 27 29 30 32 33 34 35 34 33 33 33 33 32 31 31 30 30 30 29 29 28 28 28 26 24 23 22 22 22 23 24 24 25 26 26 27 27 28 28 29 29 29 30 30 31 31 33 34 35 35 35 34 33 32 30 30 31
29 30 30 30 29 29 30 31 33 34 37 39 38 35 34 35 35 36 36 35 35 34 33 33 32 32 32 32 32 31 29 28 26 25 24 24 25 26 27 28 28 29 29 30 30 30 31 31 31 31 31 32 34 35 36 37 37 37 37 35 33 32 32
31 31 32 33 34 33 33 34 36 37 39 41 40 36 36 38 37 37 38 38 38 38 36 35 35 35 35 36 35 34 33 32 30 29 28 27 27 27 28 29 30 30 31 31 32 32 33 33 33 32 32 33 34 36 37 37 38 39 39 39 37 36 35
33 34 34 35 35 36 36 37 39 40 40 40 39 38 40 42 40 38 38 39 38 38 38 38 37 37 38 38 38 37 36 35 34 33 32 30 29 29 29 30 30 31 32 32 33 34 34 35 35 34 34 35 36 36 37 38 38 39 40 41 40 40 39
34 36 37 37 37 37 38 39 41 42 41 41 39 39 40 41 40 39 40 39 37 36 37 39 39 39 39 40 39 38 38 38 37 36 35 34 32 31 31 31 31 32 33 33 34 34 35 36 36 36 36 37 37 38 38 39 39 40 41 42 42 42 42
33 35 37 39 39 39 40 41 42 44 44 43 41 39 38 37 37 40 43 42 38 37 38 39 40 40 40 40 40 40 40 40 40 39 38 37 36 34 33 32 33 33 34 34 35 35 35 36 37 37 38 38 39 40 40 41 41 42 43 43 43 43 43
33 34 35 37 38 40 41 42 43 45 45 44 42 41 39 38 37 39 42 43 41 40 40 39 40 41 41 40 40 41 42 42 42 42 40 39 39 38 36 35 34 34 35 35 36 36 36 37 38 38 39 40 41 41 42 42 43 43 43 44 44 44 44
32 33 34 35 37 38 40 42 43 44 44 43 42 41 40 39 37 37 39 41 43 43 43 42 41 41 40 40 41 42 43 43 43 43 42 41 41 41 39 38 37 36 36 36 37 37 38 39 39 40 41 42 42 42 43 43 43 44 44 44 45 45 45
31 31 33 35 36 37 38 38 39 40 40 40 40 39 38 37 35 35 37 41 44 45 45 45 44 42 42 41 42 42 44 44 44 44 44 43 42 42 41 40 39 38 38 38 38 39 40 41 42 42 43 43 43 43 43 43 43 44 44 45 46 46 46
32 32 33 34 35 37 38 38 37 36 36 36 35 36 35 34 33 33 35 40 43 45 45 47 47 46 45 44 44 44 45 45 45 45 45 44 43 42 41 41 41 40 40 40 40 41 42 43 44 45 45 45 45 44 44 44 44 44 45 46 46 47 48
33 34 35 36 36 36 37 38 37 36 35 34 34 33 33 34 33 31 34 40 44 45 46 47 48 48 48 47 47 46 45 45 45 44 44 44 43 42 42 42 42 43 43 43 42 43 44 45 46 47 47 47 46 46 46 45 45 45 46 47 47 48 49
33 34 36 37 38 38 37 37 37 37 36 37 37 36 36 36 34 32 35 40 43 44 44 44 46 48 49 49 49 48 47 46 44 44 44 44 43 43 43 43 44 45 46 46 45 45 46 47 48 49 49 49 48 48 48 47 47 47 47 48 49 50 50
34 35 35 36 36 37 38 37 35 35 35 36 38 39 38 36 34 35 39 42 42 41 42 43 45 48 49 50 50 49 49 47 45 44 44 44 43 43 44 44 45 46 47 47 47 47 48 49 50 50 51 51 51 51 50 49 48 48 49 49 50 52 53
36 36 36 35 34 34 35 36 34 34 33 33 35 37 35 32 33 37 39 40 40 41 42 45 47 48 49 48 47 47 47 46 44 44 44 44 44 44 44 44 45 45 46 47 47 48 49 50 51 52 52 53 53 53 51 51 51 51 51 51 51 53 54
36 37 36 34 32 32 33 32 32 32 32 31 31 32 33 34 37 38 38 39 40 42 44 45 45 43 42 42 42 43 43 43 42 43 43 44 44 44 44 45 45 45 45 46 47 48 49 50 52 53 54 55 55 53 52 52 53 53 53 53 53 54 55
35 35 35 33 31 31 30 30 29 29 29 29 30 32 35 39 41 41 40 40 41 41 41 40 37 37 37 38 39 40 39 40 41 43 44 44 44 44 45 45 45 45 45 46 47 48 49 51 52 54 55 55 54 53 53 54 55 55 55 55 55 55 55
33 33 33 33 31 30 28 28 28 28 28 29 32 34 37 40 42 42 40 38 37 36 34 33 33 34 35 35 35 35 37 38 40 43 45 45 45 45 44 44 45 45 45 46 47 48 50 51 52 54 54 54 54 54 54 55 55 55 56 56 56 56 55
31 30 30 31 30 28 28 28 27 27 28 32 35 37 38 40 40 37 33 31 31 30 28 28 29 30 30 31 32 34 36 38 40 42 44 45 45 44 44 44 44 45 46 47 48 49 50 51 53 54 54 54 54 54 54 54 55 55 55 56 57 57 56
30 28 28 28 28 27 28 28 26 27 32 37 39 38 38 36 32 28 26 25 25 25 24 24 25 27 28 31 33 34 36 38 39 40 42 43 43 43 43 43 44 45 46 47 48 49 50 51 52 52 53 53 53 53 54 54 54 55 55 55 55 54 53

ECMWFFLT1_700_spd_015.txt.gz
Wind_Speed
4 4 4 5 6 6 6 6 6 6 5 5 5 4 4 3 3 3 3 3 4 4 5 5 5 6 8 10 11 13 14 13 12 12 11 10 10 10 11 13 15 16 13 9 8 11 14 16 19 21 22 21 20 20 20 18 19 19 19 20 23 22 21
3 4 5 6 7 7 7 7 7 6 6 5 5 5 5 4 4 4 3 3 3 3 3 3 4 4 5 7 8 10 12 13 13 13 13 12 13 13 12 13 15 17 15 12 13 15 15 15 17 18 20 21 22 23 22 20 20 19 18 18 18 19 19
4 4 5 6 7 6 5 4 3 2 2 2 2 3 3 4 5 5 4 4 3 3 3 3 3 3 4 5 6 7 9 11 12 13 13 13 14 14 14 15 16 17 16 15 17 19 18 18 19 18 19 20 20 22 23 22 21 21 20 18 17 16 17
4 4 5 6 5 3 1 1 2 2 2 2 3 2 1 1 3 4 5 5 5 4 4 4 3 3 3 4 5 6 7 8 9 10 10 11 12 13 13 15 16 17 17 17 20 21 21 20 21 21 19 19 19 20 20 21 21 20 20 19 18 18 19
5 4 4 4 2 0 1 2 3 4 5 5 5 5 5 3 1 2 3 4 5 5 5 5 4 4 4 4 5 5 6 7 7 7 7 8 9 10 11 12 13 14 15 16 18 19 21 21 22 22 22 22 22 20 19 20 19 19 21 21 19 20 21
6 4 3 3 1 0 1 2 3 4 6 7 7 7 7 6 5 3 2 2 3 4 4 5 5 5 5 5 5 6 6 7 7 7 7 7 8 8 9 10 10 11 12 13 14 15 17 18 19 20 21 22 23 22 21 21 20 20 21 22 23 23 22
7 5 3 3 2 2 1 1 2 4 6 7 8 9 9 8 7 6 5 4 3 3 3 3 4 4 5 6 6 6 7 7 8 9 9 9 9 9 10 10 10 11 11 11 12 12 13 14 15 16 16 18 18 18 17 17 18 17 14 16 19 21 21
7 5 4 4 4 4 3 2 1 1 4 5 7 9 9 9 9 9 8 7 6 5 4 3 3 2 3 4 5 6 6 7 8 9 10 11 12 12 12 12 13 13 13 13 13 13 13 13 14 14 14 14 14 14 13 12 14 14 13 15 17 17 19
10 8 6 6 6 6 5 4 3 2 1 3 5 6 7 8 9 9 9 9 8 7 6 5 4 4 3 3 3 3 4 5 6 6 8 9 11 12 13 14 14 15 15 15 15 15 15 15 15 15 15 15 15 14 14 13 13 14 15 17 16 16 18
13 12 10 9 8 8 8 7 6 5 4 2 1 2 4 5 6 7 7 8 9 9 8 8 7 6 6 5 5 5 5 4 5 5 5 6 7 9 11 12 13 14 15 15 15 16 16 16 16 16 16 16 16 16 16 16 15 15 17 17 16 16 19
15 15 14 13 12 12 11 10 9 8 7 6 4 2 1 1 2 3 4 5 6 6 7 7 8 8 8 8 8 8 7 7 7 7 6 6 6 6 7 8 10 11 12 13 14 14 14 15 15 15 15 15 15 15 16 16 15 16 18 19 18 19 22
18 18 18 17 17 16 14 13 12 12 11 9 8 6 5 4 3 2 2 3 3 4 4 5 6 7 8 9 10 10 10 10 10 10 10 9 9 8 7 7 7 8 10 10 11 12 13 13 13 13 14 14 14 14 14 15 14 14 15 16 17 19 22
21 20 21 21 20 19 18 16 15 15 15 13 12 10 9 8 7 6 6 5 5 5 5 5 6 6 7 7 9 10 11 11 11 12 13 13 13 12 11 11 10 10 10 10 10 11 11 12 12 13 13 13 14 14 15 15 15 14 14 15 16 17 19
24 23 23 23 22 21 20 19 18 18 18 17 16 14 13 12 11 10 10 9 9 9 8 9 9 9 9 8 9 10 11 12 12 12 13 13 14 15 15 14 14 14 14 13 13 13 13 13 13 14 14 15 16 16 17 18 18 17 16 16 16 16 17
27 27 27 26 25 24 23 22 20 19 21 21 20 18 17 16 15 14 14 14 13 12 12 12 12 12 12 12 11 12 13 13 13 13 14 14 14 14 15 15 15 15 16 16 16 17 17 16 16 17 17 17 18 19 20 20 21 21 19 18 18 18 18
30 30 29 28 28 28 27 26 23 21 22 22 23 23 21 19 18 18 18 18 17 16 15 15 15 16 16 16 15 15 15 16 16 16 16 16 16 15 15 16 15 15 16 17 17 18 19 19 20 20 20 20 20 21 22 22 23 23 22 21 20 20 20
31 32 32 32 32 31 30 29 27 25 24 24 24 25 24 23 22 21 20 20 20 20 19 19 19 19 19 19 18 17 18 19 19 19 19 19 19 19 18 18 18 17 16 16 17 18 20 21 22 22 23 23 24 24 24 24 24 25 24 23 22 22 22
27 30 32 34 34 34 32 30 29 29 27 26 26 26 26 26 25 25 23 22 22 23 24 23 22 22 22 22 21 20 20 21 22 22 23 23 23 22 22 21 21 21 20 19 18 19 20 21 22 23 24 25 26 27 27 27 27 28 27 27 26 26 25
27 27 29 30 31 35 34 29 27 29 29 29 30 29 27 27 27 27 27 26 25 26 27 27 26 25 25 25 24 24 24 24 24 24 25 25 25 25 24 24 24 24 23 23 22 21 21 22 22 23 24 25 26 28 29 29 30 31 31 30 30 29 28
31 31 31 32 32 31 28 24 26 30 32 33 34 32 28 27 28 30 30 30 30 29 30 30 29 27 28 27 26 26 27 28 28 28 27 28 29 27 27 26 26 26 26 25 25 25 24 24 24 24 25 25 26 27 29 30 31 33 33 33 33 33 32
31 33 31 32 32 29 27 27 29 32 33 33 32 30 27 28 30 32 32 32 33 33 33 34 32 30 30 30 28 28 29 31 31 31 31 31 32 32 31 30 29 28 28 27 27 27 27 27 27 27 27 27 28 28 29 30 31 33 34 35 35 35 35
30 30 27 26 27 27 28 30 30 30 29 26 25 25 26 29 32 35 35 35 36 37 36 37 37 35 33 32 32 31 31 32 33 34 33 33 34 34 35 34 33 31 30 30 30 30 30 30 29 29 29 30 30 30 30 31 32 33 35 36 37 37 37
26 26 24 24 24 24 26 27 29 30 28 25 24 25 28 31 33 36 38 37 37 40 40 39 40 39 35 35 35 35 34 34 34 35 34 34 35 35 36 37 37 35 34 33 32 32 32 32 32 32 32 32 32 33 33 33 34 34 35 36 37 38 39
24 25 26 27 28 28 29 31 33 34 32 29 29 29 31 33 35 38 38 36 36 41 43 43 43 42 39 39 40 39 38 37 37 36 36 36 37 38 39 40 40 40 38 36 35 34 34 35 35 34 35 35 36 36 36 36 36 36 37 38 38 39 40
25 26 27 29 30 31 32 33 35 36 35 33 32 32 33 34 36 38 39 38 37 39 41 41 40 39 38 38 39 40 40 41 40 38 38 38 38 38 40 41 42 42 42 40 39 39 39 40 40 39 38 38 37 37 38 38 38 38 39 39 40 39 39
25 26 27 28 30 31 32 33 34 35 36 35 34 35 35 36 37 37 39 39 37 39 41 39 35 34 34 35 36 37 39 41 41 40 40 40 39 38 39 40 42 43 43 43 43 43 43 43 44 45 44 42 41 40 39 39 39 39 40 40 41 40 39
24 25 26 27 28 29 30 32 33 34 34 34 35 35 35 36 37 37 37 37 37 40 42 37 32 32 33 34 36 37 39 42 41 40 41 42 41 39 38 38 40 41 43 44 44 44 44 45 46 47 47 46 46 44 43 41 40 39 40 41 41 41 41
25 25 25 25 26 27 28 29 30 30 31 32 32 32 32 33 34 34 34 33 34 40 40 33 30 31 33 34 36 37 39 41 40 39 41 42 41 39 38 38 39 39 40 42 43 45 45 46 47 48 49 48 48 47 47 45 43 42 41 42 43 44 44
26 26 26 26 26 27 28 28 29 30 30 31 31 31 32 32 33 33 32 31 34 38 37 32 31 32 33 35 36 36 38 39 38 37 38 38 38 38 39 39 39 38 39 41 44 46 47 47 47 48 48 48 47 46 46 46 45 44 44 44 45 45 46
26 26 26 26 27 28 28 29 31 31 32 33 33 32 32 33 33 32 32 34 37 37 34 33 34 35 35 36 36 36 36 37 36 35 36 36 36 37 39 39 39 39 39 41 45 47 46 44 43 44 45 45 44 44 43 43 44 45 46 47 47 47 47
25 25 25 25 26 27 28 29 31 32 33 34 33 33 35 35 34 32 33 36 38 37 35 36 37 37 38 39 38 37 36 37 36 36 37 37 36 36 37 38 38 39 40 42 44 44 42 40 40 41 41 42 42 42 43 44 45 47 48 49 49 49 48
27 26 26 26 27 27 28 30 31 32 34 34 32 33 37 38 37 36 36 37 38 36 36 38 38 39 40 40 40 39 39 40 40 39 39 37 35 35 37 38 39 41 42 43 42 40 39 39 39 40 41 42 44 44 45 46 47 48 49 49 50 50 49
31 30 30 30 30 30 30 31 32 33 35 34 33 34 37 39 39 38 38 38 38 37 37 38 39 40 41 41 41 40 39 40 41 40 39 36 35 36 39 40 42 43 42 41 40 39 39 40 40 42 43 44 46 46 47 47 48 48 49 49 49 49 49
36 34 34 33 34 34 34 34 34 34 35 34 34 35 36 37 38 38 37 37 37 36 36 37 39 40 40 40 39 38 37 39 41 40 37 35 36 39 41 42 42 41 39 40 40 41 42 42 43 45 45 46 47 48 48 49 49 49 50 49 49 49 49
38 37 37 37 37 38 37 37 36 35 34 35 37 37 35 35 36 36 36 36 36 35 36 37 38 38 38 38 38 36 35 38 39 39 37 38 39 41 41 41 40 39 39 40 42 43 44 45 46 47 47 47 48 49 49 50 50 50 50 50 49 49 49
41 41 41 41 41 40 40 40 38 36 37 38 37 36 35 34 35 35 34 34 35 35 36 36 36 35 35 35 35 34 34 36 37 37 38 39 41 40 39 38 38 39 41 42 44 45 46 47 48 48 48 48 48 48 49 49 49 50 50 49 49 48 47
44 46 46 46 44 42 41 40 39 38 39 37 35 35 35 34 34 34 34 35 35 35 35 35 34 33 34 34 34 33 33 34 35 36 38 39 39 38 37 37 38 40 41 43 44 46 47 47 48 49 49 49 49 49 50 49 49 49 49 49 49 48 47

ECMWFFLT1_700_spd_021.txt.gz
Wind_Speed
14 13 12 11 10 7 4 3 2 2 3 3 3 3 3 3 2 1 1 2 3 3 3 4 5 7 7 8 10 10 10 11 10 9 9 11 13 13 11 10 11 12 12 13 13 12 10 10 10 9 10 12 11 11 14 18 22 24 23 20 20 21 21
13 12 12 11 11 9 5 4 4 4 2 1 2 3 3 3 3 1 1 2 1 1 1 2 3 4 4 6 7 9 10 11 11 10 8 9 10 10 10 9 9 10 10 12 13 11 10 10 11 11 11 10 10 11 11 11 13 16 19 19 20 22 23
11 11 10 10 10 9 7 7 7 7 5 4 2 0 2 3 3 2 1 1 1 1 1 1 0 1 1 2 4 5 6 7 7 8 9 9 9 9 9 9 9 9 10 11 12 12 10 10 10 11 12 11 11 11 11 9 8 8 9 12 15 20 24
10 9 9 9 8 8 8 8 8 8 7 6 4 3 2 2 2 2 2 2 2 2 1 1 1 1 0 0 0 1 1 1 1 3 6 8 9 9 9 10 10 11 11 12 12 12 11 11 11 12 12 12 12 12 13 12 9 7 7 8 9 12 16
9 7 7 7 7 7 7 8 8 8 8 7 6 6 5 4 3 2 2 2 2 2 2 2 1 1 0 0 1 1 2 2 2 2 2 3 4 5 5 6 7 8 9 9 9 10 11 11 12 13 13 13 14 14 14 13 10 8 9 8 5 4 6
8 6 5 5 5 5 6 7 7 8 8 8 7 7 7 7 7 6 5 4 3 3 2 2 2 1 1 0 0 1 1 1 1 1 1 1 2 2 2 2 3 3 5 5 6 6 7 7 8 10 10 11 12 13 14 14 12 11 12 12 10 7 5
7 5 3 4 4 4 4 6 7 8 9 9 9 9 9 10 10 9 8 7 6 5 4 4 3 2 2 1 1 0 0 0 1 1 1 1 1 1 2 2 3 3 3 4 5 5 5 5 5 5 5 5 5 7 8 9 8 9 14 15 14 13 10
7 6 2 1 2 2 3 5 6 6 8 9 10 10 11 11 12 12 11 10 9 8 7 6 6 5 4 4 3 2 2 1 1 0 0 1 1 1 2 3 4 4 5 6 6 6 6 6 6 6 6 5 4 3 4 4 3 8 14 15 13 13 12
8 7 5 2 1 0 1 2 3 4 5 7 8 9 10 11 11 12 12 12 12 11 10 10 9 8 7 6 6 5 4 4 3 2 2 2 2 1 1 1 2 3 5 6 6 7 7 7 7 7 8 7 7 5 5 5 3 7 13 14 12 12 11
10 9 7 5 4 3 2 1 0 1 2 3 4 5 6 7 8 9 10 10 11 11 11 11 11 10 10 9 8 7 7 6 6 5 4 4 3 3 3 2 1 0 1 2 3 4 4 5 5 6 7 7 7 7 7 8 7 9 13 14 14 13 13
12 11 10 9 8 6 5 5 4 3 2 1 1 1 2 3 3 4 5 6 7 7 8 8 8 8 9 9 8 8 8 7 7 7 6 6 5 4 4 3 3 2 2 2 2 3 3 2 2 3 3 4 4 5 6 7 9 10 12 14 15 16 16
13 14 14 12 11 10 9 9 8 7 5 4 4 4 3 3 2 2 1 2 2 2 3 3 4 4 5 5 6 6 6 6 6 6 6 6 6 6 5 4 4 3 3 3 3 3 4 4 3 3 2 3 3 3 4 5 7 8 9 11 13 15 16
16 17 17 16 15 14 13 13 12 11 9 8 7 7 7 7 6 6 5 5 4 4 3 2 1 1 2 3 4 4 4 5 6 6 6 7 7 7 7 7 6 6 5 5 5 5 5 5 5 5 5 4 4 4 4 5 6 7 8 9 10 12 13
19 19 20 20 18 17 16 16 16 15 15 13 12 11 10 9 10 10 10 10 9 8 8 7 6 5 5 5 5 5 6 6 6 7 8 8 9 9 9 9 10 10 9 9 9 8 8 8 8 8 8 7 7 7 7 7 8 9 10 11 11 12 14
23 22 23 23 22 20 19 19 18 19 19 18 17 15 14 13 13 12 13 13 13 12 12 11 10 10 9 9 8 8 8 8 7 8 8 9 9 10 10 10 10 11 11 11 11 11 12 12 12 11 11 10 10 10 10 11 11 11 13 14 14 15 16
26 26 24 24 23 22 21 21 20 20 21 21 20 20 19 18 17 16 15 14 14 14 14 14 14 14 13 13 12 11 11 11 11 10 10 10 10 11 12 12 11 11 12 12 12 12 13 13 14 14 15 14 14 14 13 13 14 14 14 16 17 17 18
26 25 23 22 22 22 21 21 21 21 22 22 22 22 24 23 22 21 18 16 16 16 16 17 16 16 16 16 16 14 12 13 13 11 11 11 11 12 13 14 13 13 14 14 14 14 14 14 14 14 15 16 16 17 17 18 17 17 17 17 18 19 19
24 25 25 25 25 24 23 24 24 24 25 24 23 23 25 26 26 24 22 20 20 21 21 20 18 17 17 17 17 16 14 14 13 12 12 12 11 12 14 15 15 15 15 16 16 16 16 16 16 16 15 16 17 17 19 20 20 21 21 20 19 20 20
23 26 28 28 26 26 28 29 29 30 30 27 23 22 23 26 27 25 23 22 24 26 27 25 22 20 19 17 16 16 15 13 12 11 11 12 12 13 15 16 17 17 17 18 18 18 18 18 18 18 18 18 19 20 21 21 22 23 24 24 24 23 22
19 23 27 28 27 27 28 29 29 30 29 26 22 22 25 26 26 25 23 24 27 29 29 28 24 22 22 22 21 18 16 13 12 13 13 13 14 15 17 19 21 21 21 21 21 21 21 21 21 21 21 22 23 23 24 25 25 25 25 26 26 26 26
13 17 20 22 22 23 22 22 23 23 23 21 21 23 26 26 27 27 27 27 28 28 29 27 22 18 20 23 25 24 21 19 18 19 18 17 17 18 19 22 24 25 25 25 25 25 24 23 23 24 24 25 25 26 26 27 28 28 29 28 28 29 29
9 11 13 15 17 18 19 19 20 19 18 19 19 20 21 21 21 22 23 24 22 22 24 23 18 17 18 21 24 25 26 25 25 24 23 22 21 20 21 23 25 25 26 26 26 27 27 26 25 25 26 27 27 28 28 29 30 31 31 31 31 32 32
9 10 12 13 15 16 17 17 17 17 17 17 18 18 18 18 16 15 17 19 19 20 21 20 19 20 21 21 22 23 25 27 28 29 28 27 26 25 25 26 28 27 26 26 26 27 27 27 26 27 27 28 29 30 31 31 33 34 34 35 35 35 35
13 14 14 15 15 16 16 17 17 17 18 18 19 19 19 19 18 17 18 20 21 22 22 22 23 23 22 22 23 24 25 26 29 31 31 29 28 28 29 31 31 30 28 28 29 29 28 28 28 28 29 30 30 31 32 33 34 35 36 37 37 37 37
17 18 18 18 19 19 19 20 20 21 22 22 23 23 23 22 22 22 22 23 24 25 25 26 26 26 25 24 24 25 26 27 29 31 31 31 30 31 31 33 33 32 32 32 31 31 30 29 29 30 30 30 30 31 32 33 34 35 36 37 37 36 37
20 20 21 20 20 20 20 20 21 22 23 24 24 24 24 25 24 25 26 27 28 29 29 28 27 26 25 25 25 26 27 28 29 30 31 32 31 31 32 33 33 34 35 34 33 32 31 30 30 31 30 30 30 31 32 32 33 35 36 37 37 36 36
21 21 21 20 20 20 20 20 21 22 23 24 25 25 25 25 26 26 27 28 29 29 28 27 26 24 24 25 26 26 26 27 29 30 31 31 30 31 32 32 33 35 36 34 33 33 32 32 32 31 31 30 31 32 32 32 34 36 37 38 39 37 36
20 19 19 19 19 20 20 21 21 22 23 24 25 25 26 26 26 26 27 28 28 26 24 24 24 24 24 25 26 25 25 25 27 29 30 30 30 31 33 34 35 36 36 35 35 34 34 35 35 33 33 32 32 33 33 33 35 37 38 38 39 38 36
19 18 17 17 18 19 20 21 22 23 24 25 25 25 26 26 26 26 27 27 28 26 24 24 24 25 26 26 26 26 26 25 26 27 30 31 31 33 35 37 38 38 37 36 36 35 35 36 37 36 35 35 35 35 35 35 36 37 38 38 38 37 37
20 19 18 17 17 18 20 21 22 23 24 24 25 25 26 26 26 27 27 27 27 25 25 25 26 27 28 28 28 28 27 26 25 27 31 33 34 36 37 38 38 38 37 36 36 36 37 37 37 36 36 36 36 36 36 36 37 38 38 37 36 36 36
22 22 21 20 19 19 20 21 22 23 23 24 24 24 25 26 26 26 25 25 24 23 23 23 24 25 26 27 27 27 26 26 26 29 32 35 36 37 37 37 37 36 36 36 37 37 37 36 36 36 36 36 37 37 38 38 38 38 38 37 36 36 36
24 24 23 22 21 20 21 22 23 24 25 25 25 25 26 26 27 26 24 23 23 23 23 23 24 24 25 26 26 26 26 26 28 31 33 34 36 36 36 36 36 36 36 36 36 36 35 35 36 37 37 37 37 37 38 38 39 39 39 38 37 37 37
26 26 25 24 23 22 22 24 25 26 27 28 28 29 30 30 30 29 28 26 26 26 26 26 26 26 26 27 27 27 27 28 29 32 33 33 34 35 36 36 36 36 36 35 34 33 33 34 35 36 36 36 37 37 37 38 40 40 40 39 39 39 39
28 28 28 28 28 27 26 26 26 28 29 30 31 32 33 33 33 33 32 31 31 31 30 30 29 28 28 28 29 29 29 30 30 31 32 33 34 35 36 36 36 36 34 32 31 32 33 34 35 35 35 36 37 38 39 39 40 41 41 41 41 41 41
30 31 31 31 30 29 28 28 28 28 30 31 33 34 34 35 34 34 34 34 34 34 34 33 33 32 30 30 30 31 31 31 31 31 31 32 33 34 35 36 36 34 31 30 31 32 34 35 36 36 37 37 38 39 40 41 42 42 42 43 43 43 43
31 31 31 30 29 29 29 29 29 28 29 31 32 33 34 35 35 34 34 34 34 34 35 35 35 35 33 32 31 31 31 31 31 30 30 30 31 33 33 33 31 29 29 30 32 34 35 36 37 38 38 39 40 41 41 42 42 43 44 44 45 44 44
30 29 28 27 28 29 30 30 30 31 32 31 30 31 33 34 34 34 34 34 34 34 35 35 36 36 35 34 32 32 32 31 30 29 28 28 29 29 29 28 27 27 29 31 32 33 35 36 37 38 39 40 41 41 42 42 43 44 45 45 45 45 45

ECMWFFLT1_700_spd_024.txt.gz
Wind_Speed
14 16 14 12 10 9 6 5 4 5 5 5 5 4 4 5 5 5 5 6 7 7 7 7 7 8 9 10 12 12 12 13 12 11 11 12 13 13 12 12 12 11 12 12 13 15 16 15 14 13 12 12 13 14 15 16 16 16 17 18 20 20 18
12 13 12 10 10 9 7 5 3 3 3 3 3 4 4 5 5 4 4 4 5 4 4 4 4 4 5 6 7 8 9 11 11 11 10 8 9 10 10 10 10 9 10 9 10 12 13 13 12 12 12 12 12 13 13 12 12 13 13 13 16 18 18
10 11 10 9 9 8 7 6 4 4 4 3 1 1 2 4 5 5 5 5 5 4 4 4 3 3 2 3 3 4 5 6 8 10 10 9 7 8 8 8 8 8 8 7 9 12 13 13 12 12 12 13 12 11 11 11 11 10 11 10 9 11 13
8 8 9 8 8 7 6 6 5 5 5 4 3 1 1 3 4 5 5 5 5 5 5 5 4 3 3 2 2 2 2 3 4 6 8 9 9 8 8 8 8 8 8 9 10 12 13 14 13 12 13 13 13 12 12 14 13 12 12 11 10 8 9
6 6 7 7 6 5 5 6 6 6 6 5 4 4 3 3 4 4 4 5 5 5 5 5 4 4 3 4 4 4 3 3 3 3 4 6 7 8 8 8 9 9 10 10 10 11 13 14 14 13 13 13 14 13 15 17 16 14 13 13 12 12 12
3 3 5 5 4 5 5 5 6 6 6 6 6 6 6 6 5 5 4 5 5 5 4 4 4 3 3 3 3 3 4 4 4 4 4 4 4 5 5 6 7 7 8 8 8 8 9 10 11 12 12 13 14 15 17 19 18 15 15 15 15 15 15
4 1 2 2 2 4 5 5 5 5 6 7 8 8 9 9 9 8 7 7 6 5 4 4 3 3 3 2 2 2 2 3 3 4 5 5 5 5 5 5 5 5 5 5 5 5 5 5 6 7 7 8 10 12 15 16 15 13 13 14 14 14 14
8 6 3 2 1 3 4 5 5 5 5 6 8 9 10 11 11 11 10 10 9 8 7 7 6 5 5 4 4 3 3 3 2 2 3 3 4 5 5 5 5 5 4 4 4 4 4 5 5 5 5 6 7 8 10 11 9 9 9 9 10 11 13
12 11 8 5 3 2 3 4 4 4 4 5 6 7 9 10 11 11 12 12 11 11 11 10 10 9 8 8 7 7 6 6 5 5 4 3 2 2 2 2 3 3 4 4 4 5 5 5 6 7 7 7 7 8 10 10 8 8 9 8 8 9 11
14 13 11 8 6 4 3 3 3 3 3 2 3 4 5 6 8 9 10 10 11 12 12 12 11 11 10 10 10 9 9 8 8 7 6 6 5 3 3 2 1 1 1 1 2 2 3 3 4 5 6 6 7 8 10 11 9 9 10 10 9 10 11
17 16 14 11 9 7 6 5 5 4 3 1 0 1 2 2 3 4 5 6 7 8 9 10 10 10 10 9 9 9 9 9 8 8 8 7 7 6 5 4 3 3 2 2 1 0 0 1 1 2 3 4 4 6 8 9 9 9 10 12 13 12 12
20 19 17 14 12 11 10 9 8 7 6 5 3 3 2 2 2 1 0 1 2 3 4 5 5 5 6 6 6 6 6 6 6 6 7 7 7 6 6 5 5 5 4 4 4 3 3 2 1 1 2 2 3 4 5 7 8 9 10 12 15 15 15
25 22 19 17 16 15 14 13 12 11 10 8 7 6 6 5 5 5 5 4 4 3 3 2 1 1 1 1 2 2 2 2 2 3 3 4 4 4 4 4 4 4 4 4 4 5 4 4 3 2 2 3 3 4 5 7 8 9 10 11 14 16 17
28 25 21 21 20 19 19 17 16 15 13 12 11 10 9 9 8 8 8 8 9 9 8 7 6 6 5 5 4 4 4 3 3 3 2 2 3 3 3 3 3 3 2 2 3 3 4 4 5 4 4 4 4 5 6 8 9 10 11 12 13 15 16
28 27 25 24 23 23 22 21 19 18 16 14 12 12 12 11 10 10 9 10 11 12 12 12 12 10 10 9 9 9 9 8 8 7 7 6 6 5 6 6 7 6 6 5 5 5 5 5 5 5 6 6 6 6 7 8 10 11 12 13 14 16 17
30 30 27 26 26 25 24 22 20 18 17 16 15 14 13 13 12 13 13 13 13 13 14 14 14 14 13 13 13 13 13 12 11 10 10 9 8 7 7 7 8 10 10 10 9 9 9 9 8 8 8 8 8 8 9 9 10 11 12 14 15 16 18
31 29 27 26 26 24 21 19 17 16 17 18 17 16 16 16 16 16 16 17 16 15 15 15 14 14 14 14 15 15 15 14 13 12 11 11 10 9 9 9 9 10 11 12 12 13 13 13 13 12 12 11 11 11 11 11 12 12 13 14 15 16 17
26 26 26 26 24 22 20 17 15 17 19 20 19 19 20 21 22 22 21 20 19 18 18 18 17 16 16 16 16 17 17 17 15 14 13 13 12 11 12 12 12 12 12 13 14 15 16 16 16 15 15 15 15 15 15 15 15 15 16 16 16 17 18
20 22 24 25 24 22 20 16 15 18 20 21 21 21 22 23 24 26 26 24 21 20 21 21 20 19 19 19 19 19 18 17 17 16 15 14 13 13 13 15 16 16 17 17 18 18 19 19 19 18 18 17 17 17 18 19 19 19 19 19 19 19 20
18 19 20 22 22 20 17 16 17 20 22 23 23 21 20 21 21 23 25 23 22 22 23 24 23 21 20 21 22 22 20 18 18 18 17 15 14 14 15 17 19 20 21 22 22 23 23 23 23 22 21 20 20 20 21 22 22 23 23 22 22 22 21
15 17 18 19 19 19 19 20 20 21 21 21 19 16 16 17 18 19 20 19 19 20 22 24 25 24 24 24 25 24 22 21 21 21 21 19 18 17 17 18 19 21 23 24 24 24 24 25 26 26 25 23 23 23 23 24 24 25 26 26 26 26 25
11 13 14 15 16 17 18 19 19 19 18 16 15 14 15 17 18 18 17 16 16 16 17 18 19 21 23 24 24 24 23 21 20 21 23 24 23 22 20 18 19 22 25 26 25 24 25 26 27 28 27 26 25 24 25 26 27 28 29 29 29 29 28
10 10 10 11 12 13 14 14 14 14 14 13 13 14 15 16 16 16 16 16 16 16 16 15 16 17 18 18 20 22 23 21 18 19 22 25 26 26 24 21 21 23 26 27 26 25 26 28 29 29 28 27 27 26 27 28 30 31 32 31 31 31 30
10 10 10 11 12 12 13 13 13 13 13 13 14 15 16 16 16 16 17 17 18 19 18 19 19 19 18 19 20 21 21 21 21 21 22 25 27 28 28 26 24 25 26 27 27 28 29 30 31 30 29 28 27 27 28 29 31 33 33 33 32 32 32
12 12 12 12 13 14 15 15 16 16 16 17 18 19 20 20 20 20 20 20 21 22 22 22 22 22 22 22 23 23 23 24 24 25 26 27 29 30 31 30 28 27 27 28 29 29 31 32 32 32 31 29 28 28 28 30 30 32 33 34 33 32 32
13 13 13 14 15 15 16 17 18 19 19 20 20 21 21 21 21 22 22 23 23 24 24 24 24 24 24 24 25 26 27 27 27 28 28 29 29 30 31 31 30 29 30 31 30 31 34 34 33 32 32 30 30 30 30 30 31 32 34 35 34 33 33
15 15 15 16 17 17 18 19 19 20 20 20 20 20 21 21 21 22 23 24 24 25 24 24 25 25 25 25 26 27 27 27 28 28 29 29 28 28 29 30 30 31 32 32 32 34 36 35 34 34 34 33 33 33 32 32 33 34 36 36 37 35 34
17 17 17 17 18 18 18 18 18 19 19 20 20 20 21 21 21 22 22 23 23 23 22 23 23 24 24 24 25 26 26 25 25 26 27 27 27 27 27 28 30 32 33 33 35 37 38 37 36 36 36 36 36 36 35 35 35 36 37 37 38 37 36
19 18 18 18 18 18 18 18 18 18 18 19 20 20 21 22 23 23 24 24 23 22 21 22 22 23 23 23 24 25 25 25 25 26 26 26 26 27 27 28 31 32 32 34 37 38 38 38 38 37 37 37 38 37 37 37 37 38 38 38 39 39 38
20 19 19 19 19 18 18 18 19 19 19 19 20 21 22 23 23 24 24 24 24 23 22 22 22 22 23 23 24 24 25 26 26 27 28 28 28 28 29 30 32 33 34 36 38 39 39 39 39 38 38 39 39 38 38 38 39 39 39 40 40 40 40
21 21 21 20 20 20 20 20 21 21 20 21 21 22 23 24 24 24 24 23 23 23 22 22 21 21 21 21 21 22 23 24 25 26 27 28 28 28 29 31 32 34 36 38 39 39 40 40 40 40 40 40 40 40 40 40 40 40 40 41 41 41 40
23 23 23 23 23 23 23 23 23 23 22 23 23 24 25 26 26 26 26 25 25 25 24 23 23 23 23 22 22 22 22 23 24 24 25 25 26 27 28 30 32 34 36 37 38 38 38 39 40 41 42 42 42 42 41 41 41 41 40 39 39 39 40
26 26 26 26 26 26 26 25 25 24 24 24 25 25 26 27 28 29 29 29 29 29 28 28 28 28 28 27 26 26 25 25 25 24 25 25 26 27 29 31 33 34 35 36 36 37 37 38 40 41 42 42 43 42 42 41 39 38 37 37 38 39 40
29 29 28 28 28 27 27 27 26 26 27 27 27 27 27 28 29 30 31 31 32 32 32 32 32 32 32 32 31 31 30 29 29 28 27 28 29 30 31 31 32 33 35 35 36 37 37 38 39 40 41 41 41 40 38 36 35 35 36 37 38 39 40
31 31 30 30 29 29 28 28 28 29 29 30 30 29 28 27 28 29 30 31 31 32 32 33 33 33 34 34 34 33 33 33 32 32 31 31 31 32 32 32 32 33 34 35 36 37 38 39 39 39 38 37 36 35 34 34 35 36 37 38 39 40 40
33 33 32 32 31 31 30 30 30 30 30 31 31 30 28 26 26 27 28 29 30 30 31 32 32 33 33 34 34 34 34 34 33 34 33 32 32 32 32 32 32 32 33 35 37 38 38 37 36 35 34 33 33 34 35 37 38 39 40 41 42 42 42
35 35 34 33 33 32 31 30 30 30 30 30 30 28 26 25 25 26 27 29 30 30 31 31 32 32 32 33 34 34 34 33 33 33 33 33 33 33 32 32 32 33 35 36 36 34 33 32 32 32 32 33 34 36 38 40 41 42 43 43 43 43 43

ECMWFFLT1_700_spd_030.txt.gz
Wind_Speed
10 11 12 12 11 12 15 16 14 12 10 9 8 7 7 8 8 8 8 7 6 5 5 5 6 7 7 8 10 12 14 15 16 16 15 14 13 12 12 10 10 11 12 12 12 13 13 13 11 10 11 10 9 10 10 10 9 7 6 5 5 6 7
10 11 12 12 11 10 13 15 14 13 11 10 9 7 6 7 7 7 7 6 6 5 5 4 5 4 4 4 5 7 9 10 12 12 12 12 11 10 10 9 10 11 11 12 13 13 13 13 11 10 9 9 9 10 11 10 7 6 4 4 5 5 4
10 11 11 11 10 10 11 13 12 11 10 10 9 7 6 6 6 6 6 6 5 5 4 4 4 3 2 1 2 3 4 5 7 8 9 10 9 8 7 8 9 9 9 10 10 10 11 12 13 12 11 10 10 9 10 9 7 5 5 4 4 4 5
12 11 9 8 9 10 11 12 11 9 8 8 7 6 5 4 4 5 5 6 6 5 4 4 3 3 2 1 1 1 2 3 4 6 7 8 9 8 8 8 8 7 7 8 8 7 8 9 10 11 10 9 9 9 9 9 8 7 6 6 6 7 7
12 10 7 7 9 10 10 11 11 9 7 6 5 5 4 3 3 4 4 5 6 6 5 5 4 4 4 3 3 2 2 2 3 3 4 6 7 8 8 9 9 7 7 7 6 6 6 7 8 9 8 7 8 9 10 10 9 8 8 9 10 10 11
13 10 7 7 8 9 10 10 10 8 6 6 5 5 4 4 3 3 3 4 5 6 6 6 5 5 5 4 4 4 4 4 4 4 4 4 5 6 7 8 8 8 8 8 8 8 9 9 9 9 10 9 9 10 11 11 10 10 10 11 12 12 13
14 12 9 7 8 9 9 9 8 6 5 5 5 6 5 5 4 4 3 3 3 4 5 5 5 5 4 4 4 4 4 4 4 4 4 4 4 4 4 6 7 7 8 8 9 9 10 10 9 9 9 9 9 10 10 10 10 10 10 10 11 12 13
17 16 13 10 9 10 10 7 5 4 3 4 5 6 6 6 6 7 7 7 6 5 5 4 4 4 4 3 3 2 2 2 3 3 4 4 4 4 4 4 4 5 5 5 6 6 7 7 6 6 6 6 6 7 7 7 7 6 6 6 7 9 10
19 20 18 15 12 11 11 7 4 2 1 2 4 6 7 7 8 10 11 11 10 10 9 9 8 8 8 7 6 5 5 4 3 3 2 3 3 3 3 4 4 4 4 4 4 5 5 6 6 6 6 6 7 7 7 7 7 7 6 6 6 7 8
22 22 21 20 17 14 14 9 4 3 2 1 3 5 7 8 9 10 12 12 12 11 12 12 12 12 12 11 11 10 9 9 8 7 6 5 5 5 4 4 3 2 2 2 2 3 4 6 6 7 7 7 8 9 9 10 10 9 9 8 8 8 8
24 26 26 26 21 19 18 12 7 6 3 2 2 4 5 7 8 9 10 10 10 10 10 10 10 11 11 11 12 11 11 11 11 10 9 8 8 7 7 6 6 5 4 3 3 2 2 2 3 4 4 5 6 7 8 9 9 9 10 9 9 8 8
27 29 31 30 26 23 20 13 10 9 5 4 3 2 3 3 5 5 6 6 7 7 6 6 7 7 7 7 8 8 9 10 10 10 10 9 9 9 8 8 7 7 6 5 5 4 4 3 3 3 3 4 5 5 6 6 7 8 8 8 9 9 8
29 31 33 33 28 24 19 14 14 13 9 8 6 5 5 3 3 3 3 3 3 2 2 2 2 2 3 3 3 4 5 6 6 7 8 8 7 7 7 7 6 6 6 5 5 5 5 5 5 5 5 5 6 7 7 7 8 8 9 9 9 10 10
28 32 35 33 28 23 18 15 18 17 14 13 10 10 10 8 8 6 5 5 4 3 2 2 3 3 3 3 3 3 3 4 5 5 6 6 6 6 6 6 6 6 6 5 5 5 4 4 4 5 5 6 6 8 9 9 10 10 10 11 11 12 12
23 29 33 33 29 25 19 18 22 22 18 16 15 14 14 12 11 10 9 9 8 7 6 5 6 6 6 7 7 6 5 5 5 5 6 6 7 7 7 7 7 7 8 8 8 7 7 7 7 7 7 7 8 8 9 10 11 12 12 12 12 13 13
19 23 29 31 30 28 23 22 25 25 20 19 18 18 16 15 13 12 11 11 11 10 9 8 8 8 9 9 10 10 9 8 7 7 7 7 8 9 9 10 10 10 10 11 10 10 10 9 9 9 9 9 10 10 10 11 12 13 15 15 15 15 15
16 18 23 27 29 29 27 24 25 26 24 23 22 20 18 17 15 15 14 13 13 14 14 12 11 11 12 12 13 13 12 11 10 10 10 10 10 11 11 12 12 13 13 14 13 13 12 12 12 11 11 11 11 11 12 13 13 14 15 17 18 18 18
14 15 19 24 27 28 27 25 26 28 28 27 25 23 21 20 19 19 18 17 16 17 17 16 15 15 15 14 15 16 16 15 14 13 13 13 14 14 13 13 13 14 15 16 16 16 16 16 15 15 15 14 14 14 14 15 16 16 17 18 19 20 21
14 14 16 20 23 26 27 26 26 28 30 30 26 24 24 23 23 23 22 19 17 17 19 19 19 18 16 16 18 18 16 17 17 16 15 16 16 17 17 16 16 16 16 17 18 19 19 20 20 19 19 18 18 17 17 17 17 18 19 20 21 22 23
14 15 17 19 21 25 27 27 27 28 31 31 28 27 26 26 27 26 23 19 17 17 18 19 19 19 17 16 17 16 15 17 18 18 18 18 17 17 18 18 18 18 17 18 19 20 21 22 22 22 22 22 22 22 21 20 20 20 20 21 22 23 24
15 16 18 20 20 22 25 27 28 29 30 30 31 29 27 29 31 28 22 18 17 16 17 16 16 16 16 15 16 16 17 20 21 22 22 21 20 19 19 19 20 20 19 20 21 22 23 24 25 25 25 25 25 24 24 24 23 23 23 23 23 23 24
17 17 19 20 20 19 21 25 28 29 29 29 29 27 25 27 27 24 20 18 16 16 16 16 15 14 13 13 14 16 18 19 20 21 22 23 23 22 21 21 21 21 21 21 22 23 24 25 25 26 27 27 27 27 27 27 27 26 25 25 26 26 27
18 18 18 19 19 18 20 23 25 27 26 25 23 21 22 21 19 18 18 17 16 16 15 15 15 14 13 14 15 16 17 17 17 17 19 20 21 22 21 22 23 23 22 22 23 24 25 26 26 27 27 28 29 30 31 32 33 32 30 28 28 29 29
18 18 17 18 19 19 20 22 24 24 24 23 20 18 18 17 15 15 15 15 15 16 16 15 15 15 15 15 16 17 18 18 18 18 19 19 19 20 21 22 23 24 24 25 25 26 27 28 28 28 29 30 32 34 34 35 35 36 35 33 31 31 31
18 18 18 18 19 20 21 22 23 23 23 21 19 17 16 15 15 15 15 16 17 18 18 17 17 17 18 19 20 20 20 21 21 21 22 21 21 22 22 23 24 24 25 25 26 28 29 29 30 31 32 33 34 33 35 37 37 37 38 37 34 32 32
20 20 20 20 20 20 21 22 22 22 22 21 19 18 17 16 17 17 18 18 19 19 18 19 19 21 22 23 23 23 23 24 24 24 24 24 24 24 25 25 25 26 26 26 27 29 30 31 32 32 32 33 32 31 34 39 40 40 39 37 35 34 34
21 21 22 21 21 22 22 22 23 23 22 22 21 20 19 18 19 19 19 19 20 20 20 21 22 24 24 25 25 25 25 25 25 25 26 26 26 26 26 26 27 27 28 28 29 30 31 32 33 33 33 33 33 34 36 39 40 41 40 38 36 37 37
22 22 23 22 22 23 24 24 25 24 24 23 22 22 22 21 21 21 22 22 22 22 22 23 24 24 25 25 26 26 26 26 26 26 27 27 28 28 28 28 28 28 28 28 29 29 30 31 32 33 33 34 35 36 37 39 41 42 41 39 38 38 38
23 24 24 23 23 24 25 26 26 26 25 24 24 23 23 23 23 23 23 22 22 22 23 23 23 24 24 25 26 26 26 27 27 27 27 27 28 28 28 28 28 28 29 29 30 30 31 31 32 33 34 35 36 37 39 39 39 39 39 38 38 38 38
24 25 25 24 25 25 26 26 26 26 26 25 25 24 24 23 23 23 23 22 22 23 23 23 24 24 25 25 26 26 27 27 27 27 27 27 27 27 28 28 28 28 28 29 30 31 31 32 33 34 34 36 37 38 38 37 35 36 37 38 38 39 39
25 26 25 25 26 25 25 25 25 25 25 25 25 25 24 24 24 24 24 23 23 23 23 23 23 23 24 25 25 26 26 27 27 27 27 27 27 27 27 27 27 27 27 27 28 29 30 31 31 32 33 35 36 36 36 35 35 37 38 39 40 41 41
24 25 26 27 27 27 26 26 26 26 26 26 26 26 26 26 26 26 26 25 25 25 24 24 24 24 24 25 26 26 27 28 28 28 29 29 28 28 28 28 29 29 29 29 30 30 31 31 32 33 34 35 36 37 37 37 38 39 40 41 42 43 43
24 24 26 27 27 27 27 27 28 28 28 27 27 27 27 28 28 28 28 28 28 27 27 27 27 27 27 28 28 29 29 29 30 30 31 31 31 31 32 32 32 32 33 33 33 34 34 35 36 36 37 38 39 39 40 40 41 41 42 42 43 43 44
28 29 29 29 29 30 30 30 29 28 28 27 27 28 28 29 29 30 30 29 29 29 29 29 29 29 30 31 31 32 32 31 32 32 32 32 32 32 32 33 33 33 34 34 35 36 36 37 38 39 39 40 40 41 42 42 42 43 43 43 43 43 43
30 31 31 31 32 33 33 34 33 31 29 29 29 29 29 30 30 31 31 31 31 30 30 30 31 31 32 33 33 34 33 33 33 33 33 32 32 32 32 32 32 33 33 34 35 36 37 39 40 40 40 40 41 42 43 43 43 43 43 43 43 42 42
30 30 29 29 29 28 29 31 33 32 31 31 31 31 31 32 33 34 34 33 33 32 32 32 32 33 34 34 34 34 34 34 35 35 34 34 33 33 33 33 33 34 34 35 36 37 38 39 40 41 41 42 42 43 43 43 43 43 43 43 42 42 41
31 30 28 28 28 28 28 28 29 30 29 29 30 31 31 32 33 34 35 34 33 33 33 33 34 34 34 34 34 34 34 35 35 35 36 36 36 36 36 36 36 36 36 36 37 37 38 39 40 41 41 42 42 42 43 43 43 42 42 42 42 42 42

ECMWFFLT1_700_spd_033.txt.gz
Wind_Speed
10 10 11 13 14 13 13 14 15 16 16 15 13 11 8 6 4 3 2 2 2 2 1 1 1 3 4 6 8 10 12 14 15 15 14 14 13 13 12 11 11 10 10 11 12 12 11 10 10 9 9 9 9 8 8 7 6 4 3 4 4 4 3
12 12 13 14 14 12 13 14 15 16 16 15 14 11 8 6 4 3 3 4 4 4 3 3 2 1 2 3 4 5 7 9 11 13 14 14 14 14 13 13 12 11 11 11 11 11 11 11 11 10 9 7 7 7 7 6 5 5 4 4 4 3 3
14 15 15 15 14 12 12 14 14 15 15 15 14 12 9 7 4 3 4 5 6 6 6 5 4 4 3 2 1 0 1 3 5 7 8 9 10 10 9 10 10 9 9 10 9 9 8 10 11 11 9 7 6 7 7 6 5 5 5 4 4 4 4
16 16 16 15 14 13 13 12 13 14 13 13 13 11 10 7 5 4 5 5 7 7 7 7 7 6 6 5 5 4 3 2 2 2 2 4 5 6 7 7 7 6 6 7 8 7 6 6 7 8 8 8 8 8 7 6 5 5 6 5 6 6 6
17 17 16 15 14 14 13 12 13 12 11 10 10 10 9 7 6 5 5 5 6 7 7 7 7 7 7 6 6 6 6 5 5 4 3 2 2 3 5 7 7 6 6 6 6 5 5 5 5 5 6 7 8 8 7 7 6 6 7 7 8 8 8
16 16 16 16 16 15 14 12 12 12 10 9 8 7 7 6 5 5 5 5 6 7 7 7 7 7 6 6 6 6 6 6 6 6 6 5 4 2 1 3 5 6 6 6 6 6 7 7 6 6 7 7 8 9 9 9 8 8 8 9 9 10 11
15 16 16 17 17 15 14 12 11 11 9 7 7 6 6 6 6 6 7 7 8 8 8 8 8 8 7 7 6 6 6 6 5 6 6 6 6 5 4 2 1 3 4 5 5 6 6 7 6 6 7 7 8 9 9 9 8 8 9 9 10 10 10
17 18 18 19 17 15 14 12 10 10 8 6 5 5 6 6 7 8 9 10 11 11 11 12 12 11 10 10 10 10 9 8 7 7 7 7 6 5 4 3 2 1 1 2 3 3 3 3 3 4 4 4 5 5 5 5 5 6 6 6 7 7 8
22 21 20 20 18 15 14 12 8 6 6 6 4 3 5 6 8 9 11 13 14 15 15 15 15 14 14 14 14 14 13 12 12 11 10 10 9 8 6 5 4 2 1 1 2 2 3 3 3 3 4 4 5 4 4 4 4 5 5 5 6 6 7
25 24 22 21 19 17 16 13 9 8 7 5 3 1 4 6 8 10 12 14 14 15 15 15 15 15 15 15 15 15 14 14 14 13 12 12 11 10 9 8 7 6 4 2 2 2 2 2 3 3 3 4 4 5 5 5 5 6 6 6 7 7 7
24 25 24 24 21 20 21 16 13 13 11 7 4 2 3 5 7 9 10 12 12 12 13 13 12 12 12 12 12 12 12 11 12 11 11 11 10 10 9 9 8 8 6 6 5 4 3 3 2 2 2 2 3 3 4 4 5 5 5 5 5 6 6
20 22 24 24 22 22 24 21 17 14 11 9 8 5 4 4 5 6 7 8 8 9 9 9 9 9 8 8 8 8 8 7 7 8 7 7 7 7 7 7 7 6 6 5 5 5 4 4 3 3 3 3 3 3 3 3 4 4 5 5 5 5 5
16 20 23 24 23 23 24 22 20 15 10 12 11 8 6 4 4 4 4 4 4 5 5 5 5 5 4 4 4 4 4 3 3 3 3 3 3 3 4 4 4 4 4 4 4 3 3 3 4 4 4 4 4 4 5 5 5 5 6 6 7 7 7
13 16 20 23 24 24 24 23 21 17 13 14 14 11 9 8 6 5 5 5 5 4 4 4 4 4 3 3 3 3 2 2 2 2 2 2 2 2 2 3 3 3 3 4 4 4 4 4 5 5 6 6 7 7 7 7 7 7 7 8 9 9 10
12 13 17 21 24 25 25 25 23 19 16 16 16 16 14 12 10 9 9 8 8 7 7 6 6 6 6 6 6 6 6 6 5 5 5 5 5 5 5 5 6 6 6 6 6 6 5 6 5 6 7 7 7 8 8 9 9 9 9 9 10 10 11
13 13 14 18 22 25 26 25 24 21 19 18 18 19 18 16 15 14 13 12 11 10 10 10 10 10 9 9 9 9 9 9 8 7 7 7 7 7 7 8 8 8 9 9 9 8 8 8 7 7 7 7 8 8 9 9 10 11 11 12 12 12 13
13 13 13 15 19 23 25 25 24 23 20 20 20 21 22 21 19 17 16 15 14 13 13 13 13 13 13 12 12 12 12 12 11 10 9 9 10 10 10 10 10 11 11 11 11 11 11 11 10 10 10 10 10 10 10 11 12 13 13 14 15 15 15
13 12 13 14 17 20 23 24 24 23 22 22 22 24 25 25 23 21 19 17 17 17 17 16 16 16 16 16 16 15 14 14 14 13 12 11 11 12 13 13 13 13 13 13 14 14 14 14 14 13 13 13 12 12 12 13 13 14 15 15 16 16 17
14 13 13 14 15 18 21 23 23 24 24 23 24 25 26 27 26 24 22 21 20 20 20 19 19 19 20 20 22 20 16 15 16 17 15 13 11 11 13 14 15 16 16 15 16 16 16 17 17 17 17 16 16 15 15 15 15 16 16 16 17 17 18
15 16 15 15 15 16 18 21 23 25 26 25 25 25 25 26 26 25 24 23 23 23 23 21 21 21 20 20 21 19 15 14 16 17 17 15 14 13 14 15 16 17 17 17 18 18 17 18 19 19 19 19 19 19 18 19 19 19 18 18 18 19 19
16 17 18 18 17 16 17 19 22 25 26 27 27 26 25 25 25 25 25 26 26 25 25 23 22 21 20 18 17 15 13 13 15 16 16 16 16 16 17 17 18 20 20 20 18 17 18 19 20 21 22 22 22 22 21 22 22 23 22 22 22 22 23
17 19 20 20 20 18 18 20 22 24 27 28 28 27 26 24 24 26 29 30 29 27 27 26 23 22 20 17 15 15 14 14 14 15 16 15 15 16 18 19 20 21 22 20 18 18 19 20 21 22 24 25 25 25 24 25 26 26 27 27 28 28 28
18 20 20 21 21 20 19 21 22 24 26 28 27 26 25 24 25 28 29 27 25 24 26 26 22 20 19 17 16 15 15 15 16 15 15 14 14 15 16 17 19 20 21 20 20 21 21 22 22 24 25 25 26 26 26 26 28 29 30 31 32 32 32
18 19 20 21 21 21 21 21 23 24 25 24 24 23 24 25 26 25 22 19 18 18 21 23 21 20 19 18 17 17 17 17 17 16 16 15 16 16 17 18 19 19 20 21 22 22 22 23 24 24 25 26 26 27 27 28 30 31 32 32 33 33 34
18 19 20 21 21 21 21 22 23 23 23 23 23 23 24 25 24 22 19 18 18 18 20 22 22 21 20 19 19 18 18 18 17 17 17 17 18 18 19 20 20 21 21 22 23 23 23 23 25 26 27 27 28 28 28 29 30 31 32 33 34 34 34
20 20 21 21 22 22 21 22 22 23 23 23 22 23 24 24 23 22 20 20 21 21 22 23 23 23 22 21 21 21 20 19 18 18 19 19 20 20 21 21 22 22 23 23 23 24 24 25 26 28 29 29 29 29 29 30 31 31 33 34 35 35 34
22 22 22 22 23 23 23 23 23 23 24 23 21 22 24 22 21 21 22 22 22 23 23 23 23 23 23 22 22 22 21 20 20 20 21 21 22 22 23 23 23 23 24 24 24 25 25 26 27 28 29 30 30 31 31 31 32 33 34 35 35 36 34
24 23 23 24 24 24 25 24 23 22 22 20 20 22 23 21 21 22 22 22 22 22 22 22 23 23 22 22 22 22 22 22 22 22 23 23 24 24 25 25 25 25 25 26 26 26 26 27 27 28 29 30 31 32 33 33 34 34 35 35 34 33 32
26 25 24 24 25 25 25 24 24 24 23 21 21 22 22 22 23 23 22 22 21 21 21 22 22 22 22 22 21 22 22 22 23 23 24 24 25 25 25 26 26 26 26 26 27 27 26 27 27 28 29 30 31 32 33 33 34 35 35 34 33 32 33
27 28 27 25 24 23 23 23 23 23 23 23 22 22 22 23 23 22 22 21 21 20 20 21 21 21 21 21 21 22 22 22 23 24 24 25 25 25 26 26 26 26 26 26 26 26 26 26 27 27 28 29 30 31 32 33 34 35 36 36 36 37 37
25 27 27 27 25 25 25 25 24 24 24 24 23 23 22 22 22 22 22 21 20 20 20 20 20 20 20 21 21 21 22 22 23 24 25 25 26 26 27 27 27 28 28 28 28 29 29 29 29 30 31 32 33 34 35 36 37 37 38 39 39 40 41
23 24 25 27 29 29 29 29 28 28 28 28 27 26 25 24 23 23 21 20 20 20 20 21 21 21 21 22 22 23 24 24 25 26 27 27 27 27 28 28 29 29 30 30 31 31 32 33 33 34 34 35 37 38 38 38 39 39 40 40 40 41 42
20 20 22 26 30 31 31 31 31 31 31 31 30 28 27 26 25 23 22 22 22 22 22 23 23 23 23 24 25 26 27 28 28 29 30 30 30 30 29 29 29 30 29 30 30 32 33 34 34 35 35 36 37 38 38 39 39 39 40 40 41 42 43
21 20 21 24 28 30 31 31 30 30 30 30 29 28 27 27 26 25 23 23 23 24 24 25 25 25 25 26 27 29 30 31 31 32 32 33 32 32 31 31 30 30 30 30 31 31 32 33 34 35 36 37 38 38 39 39 40 40 40 41 42 43 43
25 25 24 25 26 28 29 30 31 32 32 31 30 30 30 31 30 29 27 26 26 26 26 27 27 27 27 28 30 31 32 33 33 34 34 34 34 33 33 32 31 31 31 32 32 33 33 34 35 36 37 38 39 39 40 40 40 41 42 42 43 43 43
29 29 29 29 28 28 28 29 30 32 34 34 35 36 37 38 38 37 35 32 30 28 27 27 28 28 29 31 33 34 34 35 35 35 35 35 34 34 33 32 32 32 32 33 34 35 36 37 37 37 38 38 38 39 39 40 41 42 43 43 43 42 42
33 33 33 33 32 31 30 30 30 30 31 32 34 38 40 41 41 41 38 34 31 29 29 29 30 31 32 33 34 35 36 35 35 35 35 35 34 33 33 33 33 33 34 35 36 37 38 38 38 38 38 38 38 38 39 40 41 41 41 41 40 40 39

ECMWFFLT1_700_spd_036.txt.gz
Wind_Speed
5 7 9 10 12 13 15 15 14 14 14 13 11 10 8 6 3 2 1 2 3 4 4 5 5 6 7 7 8 8 9 10 11 12 12 12 13 13 12 11 11 9 10 10 10 10 8 6 7 8 8 9 10 11 12 11 9 8 8 8 7 7 7
6 8 10 11 12 13 14 15 15 14 14 13 11 9 8 6 3 2 2 3 4 5 5 5 5 5 5 5 6 6 6 6 6 7 8 10 11 12 13 12 11 10 10 10 10 11 8 4 6 8 8 9 9 9 10 8 6 6 6 6 5 5 6
8 9 10 11 12 14 14 15 15 14 13 13 12 10 8 6 3 2 3 4 5 6 7 6 6 5 5 5 4 4 4 3 3 4 6 7 9 10 11 11 11 10 9 10 10 9 6 4 6 8 8 8 8 8 8 8 6 4 5 6 6 6 6
10 10 11 12 13 14 15 15 14 13 13 12 11 9 8 6 4 3 4 5 6 7 7 8 8 7 7 6 6 5 4 4 3 3 3 4 4 6 7 7 7 6 5 5 6 5 5 5 6 7 7 7 9 9 8 8 7 4 4 6 6 6 7
12 12 13 13 14 16 16 14 13 13 13 11 10 9 7 5 3 3 3 5 6 7 8 8 9 9 8 8 7 7 6 6 5 5 5 4 4 3 4 5 5 5 4 4 3 3 3 4 4 5 5 6 7 7 6 6 6 5 6 7 7 8 9
13 13 14 14 15 16 16 14 13 12 11 10 10 8 7 5 3 3 4 5 6 7 8 8 9 9 9 9 8 8 8 7 7 7 7 6 6 6 5 5 4 4 5 5 4 3 3 3 3 5 5 5 6 6 6 6 7 7 8 9 9 10 11
14 15 15 16 16 16 16 14 12 11 10 9 8 7 6 4 3 3 4 6 7 8 8 8 9 8 8 8 8 8 7 7 7 7 7 7 7 7 6 5 5 4 4 4 4 4 4 3 4 5 6 5 6 6 7 7 8 7 8 8 9 10 11
15 16 16 17 16 16 15 13 12 10 8 7 7 6 4 3 3 4 5 7 8 9 9 10 9 9 9 9 9 9 9 8 8 8 7 7 7 7 6 5 4 4 4 4 4 4 4 4 4 4 3 2 2 3 4 5 5 4 5 5 6 7 7
17 17 18 18 17 16 15 13 11 9 7 6 7 6 3 2 4 5 6 8 10 10 11 11 11 11 11 11 12 12 12 11 10 10 9 8 8 7 7 6 5 4 3 3 3 3 3 3 4 4 3 3 2 2 3 4 4 4 5 5 6 6 6
18 19 20 20 18 17 16 14 12 10 10 8 6 5 2 1 4 5 7 8 10 11 12 13 12 12 12 12 13 13 13 12 12 12 11 10 10 9 8 7 7 6 5 3 3 2 2 2 2 3 3 3 3 2 3 3 4 5 5 6 6 6 7
20 21 22 21 20 18 18 17 15 14 13 11 5 3 2 2 4 5 7 8 10 11 12 12 12 12 11 11 12 12 11 11 11 11 11 10 10 9 9 9 8 8 7 5 5 4 4 3 3 3 2 2 3 2 2 1 2 2 3 4 4 5 5
20 20 20 21 21 20 19 18 17 16 15 11 5 6 4 4 6 6 6 7 8 9 9 10 10 9 9 9 8 9 8 8 8 8 8 8 8 7 7 7 7 7 7 6 5 5 5 4 4 4 3 3 2 2 1 1 1 1 1 2 3 3 4
17 17 17 18 20 20 19 18 18 17 15 10 5 8 7 6 6 6 6 6 6 6 6 6 5 5 5 5 4 4 4 5 5 5 4 4 4 4 4 4 4 4 4 4 3 3 3 3 3 3 3 2 2 1 1 1 2 2 2 2 3 3 4
15 15 15 15 17 18 19 19 18 17 16 12 8 8 10 9 8 7 7 7 6 5 5 4 3 2 2 1 1 1 1 1 1 2 2 2 2 1 1 1 1 1 1 2 2 2 2 2 2 1 1 1 2 2 2 3 3 4 4 5 5 6 6
13 14 13 13 14 16 18 19 19 18 17 15 11 10 13 13 11 10 10 9 9 8 7 6 5 5 5 5 5 5 5 5 5 5 4 4 4 4 4 3 3 3 3 4 4 4 4 4 4 4 4 4 4 5 5 6 7 7 8 8 9 9 10
12 12 12 12 13 15 17 19 20 19 18 17 15 13 15 16 16 14 13 13 12 11 10 9 9 9 8 8 8 8 8 8 8 9 8 8 7 6 6 6 6 6 7 7 7 7 7 6 6 7 7 7 6 7 7 8 9 10 10 10 11 12 12
11 11 11 12 13 14 17 19 20 20 20 19 18 16 17 18 19 18 16 16 15 14 14 13 13 12 11 11 11 11 11 11 11 11 11 11 10 10 9 9 9 9 9 9 10 10 10 10 10 10 10 9 9 9 9 10 11 11 12 12 13 13 14
11 11 11 12 12 13 16 18 19 21 22 21 21 19 18 19 20 20 19 19 18 17 17 16 15 15 14 14 13 14 14 15 15 14 14 14 13 13 13 12 11 11 11 11 11 12 12 13 13 13 13 12 12 11 12 12 13 13 14 14 15 15 16
12 12 12 12 12 12 14 15 17 19 21 23 22 21 20 20 21 22 22 22 21 21 21 21 19 17 17 16 16 17 17 18 19 18 18 17 15 14 14 12 11 12 13 12 13 14 14 14 15 15 14 13 13 13 13 14 15 16 17 17 18 18 18
13 13 13 14 14 13 13 14 15 17 19 21 22 22 22 22 22 24 24 24 24 25 25 24 23 22 21 20 20 20 19 18 19 18 17 16 14 13 13 12 11 12 13 14 15 15 14 14 17 16 13 13 13 13 14 15 16 17 18 19 20 20 20
15 15 15 15 15 16 16 15 16 17 18 20 22 23 23 24 25 25 25 25 26 26 25 24 25 25 25 24 23 21 19 17 16 15 15 14 13 13 13 13 13 13 14 14 16 16 15 16 18 15 13 14 15 15 16 18 19 19 20 20 22 23 24
17 17 17 16 16 17 17 18 18 17 18 20 22 23 24 26 27 27 27 27 27 27 25 24 24 25 27 27 26 22 19 17 17 16 15 14 13 13 13 13 13 13 13 13 14 15 15 16 17 15 15 17 17 17 19 21 21 22 22 23 24 25 26
19 19 19 19 18 18 18 18 19 18 19 21 23 24 26 27 28 27 28 28 27 26 25 25 26 27 28 28 26 22 20 19 19 17 15 14 14 14 14 13 13 13 14 14 14 15 15 16 17 16 16 17 18 18 20 21 22 23 24 26 28 28 28
20 20 20 20 20 19 18 19 19 19 20 22 24 26 28 29 30 29 29 28 28 26 26 26 26 26 25 25 24 22 21 20 19 18 16 15 15 15 15 15 15 15 16 16 16 16 16 17 18 18 18 18 20 20 21 22 24 25 26 28 29 30 30
19 20 20 21 21 20 19 19 20 21 22 25 28 29 30 31 31 30 29 27 27 26 25 24 23 21 20 21 22 21 21 20 19 18 18 17 16 16 16 15 16 16 17 17 17 17 17 18 20 21 21 21 22 23 24 24 25 26 27 28 29 30 30
18 19 20 21 22 22 22 21 22 23 24 26 28 29 31 32 30 29 28 26 26 26 24 21 20 19 19 20 22 21 21 19 19 19 17 16 16 15 14 14 14 16 17 18 18 19 19 20 21 22 23 23 24 24 25 26 26 27 28 28 29 31 31
18 19 20 22 23 24 24 24 25 25 25 25 26 27 29 31 29 28 27 25 25 25 23 20 20 19 18 20 21 20 19 19 18 18 17 16 15 14 14 14 15 17 19 20 20 20 20 21 22 23 24 24 24 24 25 26 27 27 28 29 30 31 31
20 20 21 22 23 23 25 26 26 27 26 25 26 27 29 30 29 28 27 26 25 23 21 20 20 19 19 19 19 19 19 18 18 17 17 17 16 16 17 18 18 19 20 21 21 21 21 22 23 24 24 25 25 26 25 26 27 28 29 30 31 32 32
20 21 21 23 23 24 26 27 28 29 29 28 28 29 29 29 27 26 24 23 22 20 19 19 20 20 19 19 19 18 18 18 18 18 18 18 18 18 19 19 20 20 21 21 21 21 22 22 23 24 25 26 27 28 29 29 31 31 32 33 33 34 35
22 22 23 23 24 25 26 28 30 32 33 32 30 29 29 28 26 24 20 16 15 15 17 19 19 19 19 18 18 17 18 18 19 19 18 18 18 19 19 19 20 20 21 21 21 22 22 23 24 25 26 27 29 30 31 32 33 34 34 35 36 37 38
25 25 25 25 26 27 28 28 30 33 34 34 33 31 29 27 25 23 21 18 16 16 18 19 19 18 18 17 16 16 17 18 18 18 18 19 19 19 19 20 21 21 22 22 23 23 24 25 26 26 27 28 29 30 31 32 33 34 35 36 37 37 37
27 27 28 29 29 30 30 30 30 31 33 33 33 31 29 26 24 22 21 20 20 20 19 19 19 18 17 16 16 16 17 18 19 19 20 20 21 21 21 22 23 24 24 25 25 26 26 26 27 27 27 28 29 30 31 32 33 35 35 36 37 37 38
29 29 29 30 30 31 31 30 29 30 30 31 31 31 29 27 26 25 24 24 24 23 22 21 20 19 18 17 17 17 18 19 20 21 21 22 22 23 24 25 26 27 27 27 28 28 28 28 28 28 28 29 30 31 32 34 35 36 37 38 39 39 40
31 30 30 30 30 30 30 29 28 28 29 29 30 30 30 29 28 27 27 27 27 27 26 24 22 21 20 20 19 19 19 21 22 22 23 24 25 26 27 28 29 29 29 29 29 29 29 29 29 29 30 31 33 34 35 36 37 37 38 39 40 41 42
33 32 31 30 30 29 29 28 27 26 27 28 28 29 29 29 28 28 26 26 27 27 27 26 25 24 23 23 23 22 22 23 23 24 25 27 28 29 30 31 31 32 32 32 31 31 31 30 30 31 32 33 35 36 37 38 38 39 39 40 41 41 42
35 34 33 32 31 30 29 29 28 28 27 28 28 29 29 29 29 28 28 27 26 26 26 26 26 26 26 27 27 26 26 25 25 26 26 27 29 31 32 33 34 34 34 33 32 32 32 31 32 33 34 35 36 37 38 39 39 40 40 40 40 40 41
38 37 36 35 34 33 32 32 32 31 31 30 30 30 31 31 31 31 31 31 30 30 30 31 31 30 30 32 33 33 31 29 28 28 28 29 32 34 35 35 35 35 34 33 32 32 32 32 33 34 35 35 36 36 38 39 40 40 40 40 39 39 39